Weather History for Savanna, IL

Change the Weather History Date:

Monday, February 25, 2013

  Actual Average (KCWI) Record (KCWI)
Temperature  
Mean Temperature 28 °F -  
Max Temperature 40 °F 38 °F 61 °F (1976)
Min Temperature 16 °F 20 °F -12 °F (1967)
Degree Days  
Heating Degree Days 37    
Moisture  
Dew Point 24 °F    
Average Humidity 80    
Maximum Humidity 95    
Minimum Humidity 63    
Precipitation  
Precipitation 0.00 in - - ()
Sea Level Pressure  
Sea Level Pressure 30.08 in    
Wind  
Wind Speed 5 mph (NE)    
Max Wind Speed 13 mph    
Max Gust Speed -    
Visibility 8 miles    
Events      
Averages and records for this station are not official NWS values.
T = Trace of Precipitation, MM = Missing Value Source: NWS Daily Summary

Daily Weather History Graph

Daily Weather History Graph

Search for Another Location

Airport:

Trip Planner

Search our weather history database for the weather conditions in past years. The results will help you decide how hot, cold, wet, or windy it might be!

Date:

Astronomy

Feb. 25, 2013 Rise Set
Actual Time 6:41 AM CST 5:46 PM CST
Civil Twilight 6:13 AM CST 6:14 PM CST
Nautical Twilight 5:40 AM CST 6:46 PM CST
Astronomical Twilight 5:08 AM CST 7:19 PM CST
Moon 6:00 PM CST (2/25) 6:11 AM CST (2/25)
Length of Visible Light 12h 01m
Length of Day
11h 04m
Full, 100% of the Moon is Illuminated
Feb 25
Full
Feb 25
Full
Mar 4
Last Quarter
Mar 11
New
Mar 19
First Quarter

Hourly Weather History & Observations

Time (CST) Temp. Windchill Dew Point Humidity Pressure Visibility Wind Dir Wind Speed Gust Speed Precip Events Conditions
12:15 AM 21.2 °F 14.9 °F 18.3 °F 89% 30.12 in 10.0 mi NE 4.6 mph - N/A   Clear
12:35 AM 22.1 °F 17.4 °F 19.0 °F 88% 30.13 in 10.0 mi NE 3.5 mph - N/A   Clear
12:55 AM 21.9 °F 17.2 °F 18.5 °F 87% 30.13 in 10.0 mi NNE 3.5 mph - N/A   Clear
1:15 AM 20.8 °F 16.0 °F 18.1 °F 89% 30.13 in 7.0 mi North 3.5 mph - N/A   Clear
1:35 AM 20.1 °F 15.2 °F 17.8 °F 91% 30.13 in 7.0 mi NNE 3.5 mph - N/A   Clear
1:55 AM 19.4 °F 14.3 °F 17.1 °F 91% 30.13 in 7.0 mi NNE 3.5 mph - N/A   Clear
2:15 AM 18.5 °F 13.3 °F 16.7 °F 93% 30.12 in 7.0 mi NNE 3.5 mph - N/A   Clear
2:35 AM 19.8 °F 13.2 °F 18.0 °F 93% 30.11 in 7.0 mi North 4.6 mph - N/A   Clear
2:55 AM 17.4 °F 10.4 °F 15.6 °F 93% 30.11 in 7.0 mi NNE 4.6 mph - N/A   Clear
3:15 AM 18.7 °F - 16.9 °F 93% 30.11 in 7.0 mi Calm Calm - N/A   Clear
3:35 AM 18.7 °F 13.5 °F 17.2 °F 94% 30.12 in 7.0 mi North 3.5 mph - N/A   Scattered Clouds
3:55 AM 18.3 °F 10.2 °F 16.7 °F 93% 30.12 in 7.0 mi NNE 5.8 mph - N/A   Overcast
4:15 AM 18.5 °F 13.3 °F 16.5 °F 92% 30.12 in 7.0 mi NNE 3.5 mph - N/A   Overcast
4:35 AM 18.9 °F - 16.7 °F 91% 30.13 in 7.0 mi Calm Calm - N/A   Overcast
4:55 AM 18.5 °F 13.3 °F 16.7 °F 93% 30.13 in 7.0 mi NNE 3.5 mph - N/A   Scattered Clouds
5:15 AM 18.9 °F - 17.1 °F 93% 30.15 in 7.0 mi Calm Calm - N/A   Clear
5:35 AM 17.4 °F 12.1 °F 15.8 °F 93% 30.14 in 7.0 mi North 3.5 mph - N/A   Scattered Clouds
5:55 AM 16.9 °F 9.8 °F 14.9 °F 92% 30.13 in 7.0 mi NNE 4.6 mph - N/A   Clear
6:15 AM 16.9 °F 8.5 °F 15.6 °F 95% 30.13 in 5.0 mi NNE 5.8 mph - N/A   Clear
6:35 AM 16.5 °F 9.4 °F 15.1 °F 94% 30.12 in 4.0 mi North 4.6 mph - N/A   Clear
6:55 AM 17.6 °F - 16.0 °F 93% 30.13 in 4.0 mi Calm Calm - N/A   Clear
7:15 AM 17.4 °F 12.1 °F 15.8 °F 93% 30.13 in 4.0 mi NNE 3.5 mph - N/A   Clear
7:35 AM 18.3 °F 11.5 °F 16.7 °F 93% 30.13 in 4.0 mi North 4.6 mph - N/A   Clear
7:55 AM 21.2 °F 16.4 °F 19.4 °F 93% 30.14 in 5.0 mi NNW 3.5 mph - N/A   Scattered Clouds
8:15 AM 21.9 °F 17.2 °F 19.2 °F 89% 30.14 in 5.0 mi North 3.5 mph - N/A   Clear
8:35 AM 24.8 °F 20.5 °F 21.0 °F 86% 30.14 in 5.0 mi NE 3.5 mph - N/A   Clear
8:55 AM 26.4 °F - 21.9 °F 83% 30.14 in 5.0 mi Calm Calm - N/A   Clear
9:15 AM 29.1 °F 25.4 °F 23.0 °F 78% 30.13 in 7.0 mi ENE 3.5 mph - N/A   Clear
9:35 AM 30.4 °F 25.6 °F 24.1 °F 77% 30.12 in 7.0 mi East 4.6 mph - N/A   Mostly Cloudy
9:55 AM 32.0 °F 28.7 °F 24.8 °F 75% 30.13 in 7.0 mi ENE 3.5 mph - N/A   Overcast
10:15 AM 33.3 °F - 25.9 °F 74% 30.13 in 7.0 mi Calm Calm - N/A   Overcast
10:35 AM 36.3 °F - 26.1 °F 66% 30.13 in 7.0 mi Calm Calm - N/A   Mostly Cloudy
10:55 AM 36.7 °F - 26.8 °F 67% 30.13 in 10.0 mi Calm Calm - N/A   Scattered Clouds
11:15 AM 37.2 °F 31.9 °F 28.2 °F 70% 30.12 in 10.0 mi SE 6.9 mph - N/A   Mostly Cloudy
11:35 AM 37.4 °F 31.4 °F 28.2 °F 69% 30.12 in 7.0 mi SE 8.1 mph - N/A   Overcast
11:55 AM 37.8 °F 33.3 °F 28.6 °F 69% 30.11 in 10.0 mi SE 5.8 mph - N/A   Mostly Cloudy
12:15 PM 38.3 °F 34.8 °F 28.6 °F 68% 30.11 in 10.0 mi SE 4.6 mph - N/A   Scattered Clouds
12:35 PM 38.7 °F 36.3 °F 28.4 °F 67% 30.11 in 7.0 mi SSE 3.5 mph - N/A   Clear
12:55 PM 39.2 °F 35.9 °F 28.6 °F 66% 30.11 in 10.0 mi SE 4.6 mph - N/A   Clear
1:15 PM 40.1 °F 36.9 °F 28.6 °F 63% 30.10 in 10.0 mi East 4.6 mph - N/A   Clear
1:35 PM 40.1 °F 36.1 °F 29.7 °F 66% 30.08 in 10.0 mi ENE 5.8 mph - N/A   Clear
1:55 PM 40.5 °F 36.5 °F 29.5 °F 65% 30.07 in 10.0 mi ENE 5.8 mph - N/A   Clear
2:15 PM 39.7 °F 35.6 °F 29.5 °F 67% 30.07 in 10.0 mi ENE 5.8 mph - N/A   Clear
2:35 PM 40.3 °F 36.3 °F 29.5 °F 65% 30.07 in 10.0 mi ENE 5.8 mph - N/A   Clear
2:55 PM 39.9 °F 35.1 °F 30.2 °F 68% 30.07 in 10.0 mi ENE 6.9 mph - N/A   Clear
3:15 PM 39.4 °F 33.8 °F 30.4 °F 70% 30.06 in 10.0 mi ENE 8.1 mph - N/A   Clear
3:35 PM 39.2 °F 35.0 °F 30.6 °F 71% 30.05 in 10.0 mi East 5.8 mph - N/A   Clear
3:55 PM 38.5 °F 32.7 °F 30.0 °F 72% 30.04 in 10.0 mi ENE 8.1 mph - N/A   Clear
4:15 PM 38.3 °F 33.2 °F 30.6 °F 74% 30.03 in 10.0 mi ENE 6.9 mph - N/A   Clear
4:35 PM 36.5 °F 30.3 °F 30.6 °F 79% 30.02 in 7.0 mi ENE 8.1 mph - N/A   Clear
4:55 PM 36.0 °F 30.3 °F 30.6 °F 81% 30.03 in 7.0 mi NE 6.9 mph - N/A   Clear
5:15 PM 35.6 °F 29.9 °F 30.2 °F 81% 30.03 in 7.0 mi NNE 6.9 mph - N/A   Clear
5:35 PM 35.8 °F 30.1 °F 29.5 °F 78% 30.03 in 7.0 mi NNE 6.9 mph - N/A   Clear
5:55 PM 35.6 °F 29.9 °F 29.3 °F 78% 30.03 in 7.0 mi NNE 6.9 mph - N/A   Clear
6:15 PM 35.6 °F 30.7 °F 28.6 °F 76% 30.03 in 10.0 mi NE 5.8 mph - N/A   Clear
6:35 PM 35.6 °F 29.9 °F 28.2 °F 75% 30.01 in 10.0 mi NNE 6.9 mph - N/A   Clear
6:55 PM 35.2 °F 28.8 °F 28.4 °F 76% 30.01 in 10.0 mi NNE 8.1 mph - N/A   Clear
7:15 PM 35.2 °F 29.5 °F 28.4 °F 76% 30.01 in 10.0 mi North 6.9 mph - N/A   Clear
7:55 PM 35.1 °F 31.0 °F 28.6 °F 77% 30.00 in 10.0 mi NNE 4.6 mph - N/A   Clear
8:15 PM 34.9 °F 29.9 °F 28.6 °F 78% 30.01 in 10.0 mi NNE 5.8 mph - N/A   Clear
8:35 PM 35.4 °F 30.5 °F 28.4 °F 76% 30.00 in 7.0 mi NNE 5.8 mph - N/A   Clear
8:55 PM 35.1 °F 31.0 °F 28.4 °F 77% 30.00 in 7.0 mi NE 4.6 mph - N/A   Scattered Clouds
9:15 PM 35.6 °F 29.2 °F 28.4 °F 75% 30.01 in 7.0 mi ENE 8.1 mph - N/A   Scattered Clouds
9:35 PM 35.6 °F 28.0 °F 28.2 °F 75% 30.02 in 7.0 mi ENE 10.4 mph - N/A   Mostly Cloudy
9:55 PM 34.9 °F 27.1 °F 28.6 °F 78% 30.01 in 7.0 mi ENE 10.4 mph - N/A   Overcast
10:15 PM 34.9 °F 26.6 °F 28.4 °F 77% 30.00 in 7.0 mi ENE 11.5 mph - N/A   Overcast
10:35 PM 34.7 °F 26.4 °F 28.4 °F 78% 29.98 in 7.0 mi ENE 11.5 mph - N/A   Mostly Cloudy
10:55 PM 34.3 °F 26.5 °F 28.2 °F 78% 29.97 in 10.0 mi ENE 10.4 mph - N/A   Scattered Clouds
11:15 PM 34.5 °F 25.7 °F 27.9 °F 77% 29.96 in 10.0 mi East 12.7 mph - N/A   Clear
11:35 PM 34.2 °F 25.7 °F 27.9 °F 78% 29.94 in 10.0 mi ENE 11.5 mph - N/A   Mostly Cloudy
11:55 PM 33.8 °F 25.8 °F 27.9 °F 79% 29.93 in 10.0 mi ENE 10.4 mph - N/A   Scattered Clouds